Steamboat Springs, CO

3:29 PM MST on January 18, 2018 (GMT -0700)
Steamboat Springs-Adams

Weather History for KSBS - March, 2013

Change the Weather History Date:

Sunday, March 31, 2013

  Actual Average Record
Temperature  
Mean Temperature 40 °F -  
Max Temperature 57 °F 46 °F 73 °F (2012)
Min Temperature 24 °F 19 °F -16 °F (1924)
Degree Days  
Heating Degree Days 24    
Moisture  
Dew Point 20 °F    
Average Humidity 57    
Maximum Humidity 94    
Minimum Humidity 16    
Precipitation  
Precipitation 0.00 in - - ()
Sea Level Pressure  
Sea Level Pressure 30.15 in    
Wind  
Wind Speed 0 mph (ESE)    
Max Wind Speed 4 mph    
Max Gust Speed -    
Visibility 10 miles    
Events      
Averages and records for this station are not official NWS values.
T = Trace of Precipitation, MM = Missing Value Source: NWS Daily Summary

Daily Weather History Graph

Daily Weather History Graph

Search for Another Location

Airport or City:

Trip Planner

Search our weather history database for the weather conditions in past years. The results will help you decide how hot, cold, wet, or windy it might be!

Date:

Astronomy

Mar. 31, 2013 Rise Set
Actual Time 6:52 AM MDT 7:31 PM MDT
Civil Twilight 6:24 AM MDT 7:58 PM MDT
Nautical Twilight 5:52 AM MDT 8:31 PM MDT
Astronomical Twilight 5:18 AM MDT 9:05 PM MDT
Moon No Moon Rise 9:41 AM MDT (3/31)
Length of Visible Light 13h 34m
Length of Day
12h 39m
Waning Gibbous, 77% of the Moon is Illuminated
Mar 31
Waning Gibbous
Apr 2
Last Quarter
Apr 10
New
Apr 18
First Quarter
Apr 25
Full

Hourly Weather History & Observations

Time (MDT) Temp. Windchill Dew Point Humidity Pressure Visibility Wind Dir Wind Speed Gust Speed Precip Events Conditions
12:15 AM 32.0 °F - 28.9 °F 88% 30.22 in 10.0 mi Calm Calm - N/A   Clear
12:35 AM 32.0 °F - 28.9 °F 88% 30.22 in 10.0 mi Calm Calm - N/A   Clear
12:55 AM 30.7 °F - 27.9 °F 89% 30.22 in 10.0 mi Calm Calm - N/A   Clear
1:15 AM 28.6 °F 24.8 °F 26.6 °F 92% 30.21 in 10.0 mi ENE 3.5 mph - N/A   Clear
1:35 AM 29.8 °F - 27.7 °F 92% 30.22 in 10.0 mi Calm Calm - N/A   Clear
1:55 AM 28.9 °F - 26.8 °F 92% 30.22 in 10.0 mi Calm Calm - N/A   Clear
2:15 AM 29.1 °F - 26.8 °F 91% 30.21 in 10.0 mi Calm Calm - N/A   Clear
2:35 AM 29.1 °F - 27.0 °F 92% 30.21 in 10.0 mi Calm Calm - N/A   Clear
2:55 AM 27.5 °F - 26.1 °F 94% 30.20 in 10.0 mi Calm Calm - N/A   Clear
3:15 AM 28.4 °F - 26.6 °F 93% 30.19 in 10.0 mi Calm Calm - N/A   Clear
3:35 AM 28.2 °F - 26.8 °F 94% 30.19 in 10.0 mi Calm Calm - N/A   Clear
3:55 AM 27.3 °F - 25.2 °F 92% 30.19 in 10.0 mi Calm Calm - N/A   Clear
4:15 AM 27.5 °F - 25.7 °F 93% 30.19 in 10.0 mi Calm Calm - N/A   Clear
4:35 AM 27.0 °F - 24.8 °F 92% 30.18 in 10.0 mi Calm Calm - N/A   Clear
4:55 AM 27.3 °F - 23.4 °F 85% 30.19 in 10.0 mi Calm Calm - N/A   Clear
5:15 AM 25.3 °F - 23.5 °F 93% 30.19 in 10.0 mi Calm Calm - N/A   Clear
5:35 AM 25.3 °F - 23.0 °F 91% 30.19 in 10.0 mi Calm Calm - N/A   Clear
5:55 AM 24.8 °F - 23.4 °F 94% 30.19 in 10.0 mi Calm Calm - N/A   Clear
6:15 AM 24.4 °F - 22.8 °F 94% 30.19 in 10.0 mi Calm Calm - N/A   Clear
6:35 AM 24.8 °F - 23.0 °F 93% 30.19 in 10.0 mi Calm Calm - N/A   Clear
6:55 AM 25.0 °F - 22.6 °F 91% 30.20 in 10.0 mi Calm Calm - N/A   Clear
7:15 AM 24.6 °F - 22.3 °F 91% 30.20 in 10.0 mi Calm Calm - N/A   Clear
7:35 AM 25.7 °F - 22.3 °F 87% 30.20 in 10.0 mi Calm Calm - N/A   Clear
7:55 AM 25.3 °F - 19.9 °F 80% 30.21 in 10.0 mi Calm Calm - N/A   Clear
8:15 AM 27.5 °F - 20.3 °F 74% 30.20 in 10.0 mi Calm Calm - N/A   Clear
8:35 AM 27.3 °F - 21.4 °F 78% 30.20 in 10.0 mi Calm Calm - N/A   Clear
8:55 AM 28.9 °F - 20.8 °F 72% 30.20 in 10.0 mi Calm Calm - N/A   Clear
9:15 AM 31.6 °F - 21.9 °F 67% 30.19 in 10.0 mi Calm Calm - N/A   Clear
9:35 AM 32.0 °F - 21.6 °F 65% 30.19 in 10.0 mi Calm Calm - N/A   Clear
9:55 AM 34.2 °F - 22.6 °F 63% 30.18 in 10.0 mi Calm Calm - N/A   Clear
10:15 AM 33.8 °F - 23.0 °F 65% 30.18 in 10.0 mi Calm Calm - N/A   Clear
10:35 AM 36.7 °F - 23.7 °F 59% 30.18 in 10.0 mi Calm Calm - N/A   Clear
10:55 AM 38.1 °F - 24.1 °F 57% 30.18 in 10.0 mi Calm Calm - N/A   Clear
11:15 AM 39.0 °F - 23.9 °F 55% 30.18 in 10.0 mi Calm Calm - N/A   Clear
11:35 AM 39.7 °F - 23.5 °F 52% 30.18 in 10.0 mi Calm Calm - N/A   Clear
11:55 AM 42.3 °F - 23.0 °F 47% 30.18 in 10.0 mi Calm Calm - N/A   Clear
12:15 PM 44.4 °F - 22.3 °F 42% 30.18 in 10.0 mi Calm Calm - N/A   Clear
12:35 PM 46.2 °F - 22.3 °F 39% 30.17 in 10.0 mi Calm Calm - N/A   Clear
12:55 PM 49.5 °F - 21.7 °F 34% 30.16 in 10.0 mi Calm Calm - N/A   Clear
1:15 PM 52.9 °F - 14.9 °F 22% 30.16 in 10.0 mi Calm Calm - N/A   Clear
1:35 PM 53.8 °F - 14.4 °F 21% 30.15 in 10.0 mi Calm Calm - N/A   Clear
1:55 PM 53.1 °F - 16.9 °F 24% 30.15 in 10.0 mi Calm Calm - N/A   Clear
2:15 PM 54.1 °F - 15.8 °F 22% 30.14 in 10.0 mi Calm Calm - N/A   Clear
2:35 PM 54.9 °F - 13.5 °F 19% 30.13 in 10.0 mi Calm Calm - N/A   Clear
2:55 PM 54.9 °F - 13.6 °F 20% 30.12 in 10.0 mi Calm Calm - N/A   Clear
3:15 PM 55.0 °F - 12.6 °F 19% 30.11 in 10.0 mi Calm Calm - N/A   Clear
3:35 PM 55.6 °F - 12.4 °F 18% 30.10 in 10.0 mi Calm Calm - N/A   Clear
3:55 PM 57.0 °F - 10.8 °F 16% 30.10 in 10.0 mi Calm Calm - N/A   Clear
4:15 PM 56.5 °F - 13.5 °F 18% 30.09 in 10.0 mi Calm Calm - N/A   Clear
4:35 PM 57.4 °F - 12.7 °F 17% 30.09 in 10.0 mi Calm Calm - N/A   Clear
4:55 PM 56.8 °F - 13.5 °F 18% 30.08 in 10.0 mi Calm Calm - N/A   Clear
5:15 PM 56.7 °F - 12.7 °F 18% 30.08 in 10.0 mi Calm Calm - N/A   Clear
5:35 PM 56.7 °F - 12.0 °F 17% 30.07 in 10.0 mi Calm Calm - N/A   Clear
5:55 PM 57.0 °F - 12.0 °F 17% 30.07 in 10.0 mi Calm Calm - N/A   Clear
6:15 PM 55.2 °F - 11.7 °F 18% 30.06 in 10.0 mi Calm Calm - N/A   Clear
6:35 PM 55.0 °F - 10.9 °F 17% 30.06 in 10.0 mi Calm Calm - N/A   Clear
7:15 PM 51.1 °F - 14.7 °F 24% 30.05 in 10.0 mi Calm Calm - N/A   Clear
7:35 PM 48.2 °F - 18.1 °F 30% 30.05 in 10.0 mi SE 3.5 mph - N/A   Clear
7:55 PM 45.3 °F - 19.4 °F 36% 30.05 in 10.0 mi Calm Calm - N/A   Clear
8:15 PM 45.1 °F - 18.7 °F 35% 30.06 in 10.0 mi Calm Calm - N/A   Clear
8:35 PM 40.1 °F - 22.6 °F 50% 30.06 in 10.0 mi Calm Calm - N/A   Clear
8:55 PM 40.6 °F - 22.1 °F 48% 30.07 in 10.0 mi Calm Calm - N/A   Clear
9:15 PM 41.9 °F 40.0 °F 20.1 °F 42% 30.07 in 10.0 mi ESE 3.5 mph - N/A   Clear
9:35 PM 41.9 °F 40.0 °F 16.9 °F 36% 30.07 in 10.0 mi East 3.5 mph - N/A   Clear
9:55 PM 36.9 °F 34.3 °F 21.0 °F 53% 30.07 in 10.0 mi ESE 3.5 mph - N/A   Clear
10:15 PM 37.9 °F 35.5 °F 19.9 °F 48% 30.08 in 10.0 mi East 3.5 mph - N/A   Clear
10:35 PM 37.4 °F - 19.4 °F 48% 30.08 in 10.0 mi Calm Calm - N/A   Clear
10:55 PM 37.4 °F - 19.8 °F 49% 30.08 in 10.0 mi Calm Calm - N/A   Clear
11:15 PM 36.5 °F - 20.8 °F 53% 30.08 in 10.0 mi Calm Calm - N/A   Clear
11:35 PM 36.7 °F - 18.3 °F 47% 30.07 in 10.0 mi Calm Calm - N/A   Clear
11:55 PM 35.8 °F - 18.3 °F 49% 30.07 in 10.0 mi Calm Calm - N/A   Clear